パンスターズ彗星

C/2016 A1 ( PanSTARRS )

English version
Home page
Updated on May 23, 2019

---------------------------------------------------------------------

・ プロフィール

発見日 2016年1月1日
発見光度 19.3等
発見者 Pan-STARRS 1 telescope (Haleakala)

・ 写真集

・ 軌道要素

Epoch 2017 Nov. 23.0 TT = JDT 2458080.5
T 2017 Nov. 23.37304 TT                                 MPCW
q   5.3277633            (2000.0)            P               Q
z  -0.0003728      Peri.   10.32040     -0.53513208     +0.51121080
 +/-0.0000003      Node   128.17453     +0.70123249     -0.17512602
e   1.0019864      Incl.  121.18572     +0.47106969     +0.84142403
From 1965 observations 2016 Jan. 1-2019 Apr. 14, mean residual 0".5.

・ 星図

・ 光度変化

        m1 = 1.2 + 5 logΔ + 15.0 log r

---------------------------------------------------------------------

軌道要素はM.P.E.C. 2019-J142に掲載されたものです。
星図はステラナビゲータ Ver.10 (アストロアーツ) で作成したものです。
光度グラフはComet for Windowsで作成したものです。

---------------------------------------------------------------------

Copyright(C) Seiichi Yoshida (comet@aerith.net). All rights reserved.